Nashville, TN

8:32 PM CST on December 14, 2019 (GMT -0600)
Nashville International

Weather History for KBNA - October, 2019

Change the Weather History Date:

Wednesday, October 9, 2019

  Actual Average Record
Temperature  
Mean Temperature 68 °F 62 °F  
Max Temperature 82 °F 74 °F 91 °F (1980)
Min Temperature 53 °F 51 °F 32 °F (2000)
Degree Days  
Heating Degree Days 0    
Month to date heating degree days 3  
Since 1 July heating degree days 3  
Cooling Degree Days 3    
Month to date cooling degree days 90  
Year to date cooling degree days 2261  
Growing Degree Days 18 (Base 50)    
Moisture  
Dew Point 56 °F    
Average Humidity 69    
Maximum Humidity 93    
Minimum Humidity 42    
Precipitation  
Precipitation 0.00 in 0.10 in 1.34 in (1999)
Month to date precipitation 2.19 0.90  
Year to date precipitation 49.61 36.56  
Sea Level Pressure  
Sea Level Pressure 30.08 in    
Wind  
Wind Speed 2 mph ()    
Max Wind Speed 9 mph    
Max Gust Speed 12 mph    
Visibility 10.0 miles    
Events Fog    
T = Trace of Precipitation, MM = Missing Value Source: Averaged Metar Reports

Daily Weather History Graph

Daily Weather History Graph

Search for Another Location

Airport or City:

Astronomy

Oct. 09, 2019 Rise Set
Actual Time 6:48 AM CDT 6:19 PM CDT
Civil Twilight 6:22 AM CDT 6:44 PM CDT
Nautical Twilight 5:52 AM CDT 7:14 PM CDT
Astronomical Twilight 5:23 AM CDT 7:44 PM CDT
Moon 4:41 PM CDT (10/9) 2:44 AM CDT (10/9)
Length of Visible Light 12h 22m
Length of Day
11h 30m
Waxing Gibbous, 85% of the Moon is Illuminated
Oct 9
Waxing Gibbous
Oct 13
Full
Oct 21
Last Quarter
Oct 27
New
Nov 4
First Quarter

Hourly Weather History & Observations

Time (CDT) Temp. Heat Index Dew Point Humidity Pressure Visibility Wind Dir Wind Speed Gust Speed Precip Events Conditions
12:53 AM 59.0 °F - 51.1 °F 75% 30.08 in 10.0 mi Calm Calm - N/A   Clear
1:53 AM 57.0 °F - 52.0 °F 83% 30.08 in 10.0 mi South 3.5 mph - N/A   Clear
2:53 AM 55.0 °F - 51.1 °F 86% 30.07 in 10.0 mi Calm Calm - N/A   Clear
3:53 AM 55.0 °F - 51.1 °F 86% 30.07 in 10.0 mi Calm Calm - N/A   Clear
4:53 AM 55.0 °F - 51.1 °F 86% 30.08 in 10.0 mi Calm Calm - N/A   Clear
5:53 AM 54.0 °F - 51.1 °F 90% 30.09 in 10.0 mi Calm Calm - N/A   Clear
6:53 AM 54.0 °F - 50.0 °F 86% 30.11 in 10.0 mi Calm Calm - N/A Fog Patches of Fog
7:53 AM 59.0 °F - 55.0 °F 87% 30.12 in 10.0 mi NE 5.8 mph - N/A Fog Patches of Fog
8:53 AM 62.1 °F - 57.0 °F 84% 30.13 in 10.0 mi East 3.5 mph - N/A   Scattered Clouds
9:10 AM 64.0 °F - 57.0 °F 78% 30.14 in 10.0 mi Calm Calm - N/A   Mostly Cloudy
9:29 AM 64.9 °F - 57.9 °F 78% 30.14 in 10.0 mi ESE 3.5 mph - N/A   Scattered Clouds
9:45 AM 66.9 °F - 57.9 °F 73% 30.14 in 10.0 mi East 3.5 mph - N/A   Mostly Cloudy
9:53 AM 68.0 °F - 57.9 °F 70% 30.13 in 10.0 mi Calm Calm - N/A   Mostly Cloudy
10:11 AM 71.1 °F - 57.9 °F 63% 30.14 in 10.0 mi NNE 3.5 mph - N/A   Scattered Clouds
10:53 AM 72.0 °F - 59.0 °F 64% 30.13 in 10.0 mi ENE 3.5 mph - N/A   Scattered Clouds
11:53 AM 73.9 °F - 59.0 °F 59% 30.11 in 10.0 mi East 4.6 mph - N/A   Partly Cloudy
12:53 PM 77.0 °F - 60.1 °F 56% 30.09 in 10.0 mi NNW 4.6 mph - N/A   Scattered Clouds
1:53 PM 82.0 °F 82.1 °F 59.0 °F 45% 30.06 in 10.0 mi NNE 4.6 mph - N/A   Scattered Clouds
2:53 PM 81.0 °F 81.1 °F 57.9 °F 45% 30.04 in 10.0 mi SE 4.6 mph - N/A   Scattered Clouds
3:53 PM 82.0 °F 81.7 °F 57.0 °F 42% 30.02 in 10.0 mi East 6.9 mph - N/A   Scattered Clouds
4:53 PM 81.0 °F 80.8 °F 55.9 °F 42% 30.01 in 10.0 mi East 4.6 mph - N/A   Scattered Clouds
5:53 PM 79.0 °F - 57.9 °F 48% 30.02 in 10.0 mi East 6.9 mph - N/A   Scattered Clouds
6:53 PM 75.0 °F - 59.0 °F 57% 30.03 in 10.0 mi ENE 4.6 mph - N/A   Partly Cloudy
7:53 PM 73.0 °F - 59.0 °F 61% 30.05 in 10.0 mi ENE 4.6 mph - N/A   Clear
8:53 PM 68.0 °F - 59.0 °F 73% 30.06 in 10.0 mi Calm Calm - N/A   Clear
9:53 PM 71.1 °F - 59.0 °F 66% 30.07 in 10.0 mi East 3.5 mph - N/A   Clear
10:53 PM 66.0 °F - 59.0 °F 78% 30.07 in 10.0 mi SE 3.5 mph - N/A   Clear
11:53 PM 64.0 °F - 59.0 °F 84% 30.07 in 10.0 mi South 3.5 mph - N/A   Clear